Weather History for KLWA - October, 2013

Change the Weather History Date:

Tuesday, October 1, 2013

  Actual Average (KBIV) Record (KBIV)
Temperature  
Mean Temperature 66 °F 58 °F  
Max Temperature 75 °F 67 °F 84 °F (1971)
Min Temperature 56 °F 48 °F 30 °F (1984)
Degree Days  
Heating Degree Days 0 8  
Month to date heating degree days 8  
Since 1 July heating degree days 138  
Cooling Degree Days 0 1  
Month to date cooling degree days 1  
Year to date cooling degree days 683  
Growing Degree Days 16 (Base 50)    
Moisture  
Dew Point 60 °F    
Average Humidity 85    
Maximum Humidity 99    
Minimum Humidity 63    
Precipitation  
Precipitation 0.00 in 0.10 in 0.95 in (1977)
Month to date precipitation 0.10  
Year to date precipitation 27.21  
Sea Level Pressure  
Sea Level Pressure 29.95 in    
Wind  
Wind Speed 5 mph (SSW)    
Max Wind Speed 12 mph    
Max Gust Speed 18 mph    
Visibility 8 miles    
Events      
T = Trace of Precipitation, MM = Missing Value Source: NWS Daily Summary

Daily Weather History Graph

Daily Weather History Graph

Search for Another Location

Airport or City:

Trip Planner

Search our weather history database for the weather conditions in past years. The results will help you decide how hot, cold, wet, or windy it might be!

Date:

Astronomy

Oct. 01, 2013 Rise Set
Actual Time 7:42 AM EDT 7:26 PM EDT
Civil Twilight 7:14 AM EDT 7:54 PM EDT
Nautical Twilight 6:41 AM EDT 8:26 PM EDT
Astronomical Twilight 6:08 AM EDT 8:59 PM EDT
Moon 4:12 AM EDT (10/1) 5:32 PM EDT (10/1)
Length of Visible Light 12h 39m
Length of Day
11h 43m
Waning Crescent, 12% of the Moon is Illuminated
Oct 1
Waning Crescent
Oct 4
New
Oct 11
First Quarter
Oct 18
Full
Oct 26
Last Quarter

Hourly Weather History & Observations

Time (EDT) Temp. Dew Point Humidity Pressure Visibility Wind Dir Wind Speed Gust Speed Precip Events Conditions
12:15 AM 56.8 °F 52.7 °F 86% 29.92 in 10.0 mi South 4.6 mph - N/A   Clear
12:35 AM 56.8 °F 52.3 °F 85% 29.92 in 10.0 mi South 3.5 mph - N/A   Clear
12:54 AM 57.0 °F 52.3 °F 84% 29.92 in 10.0 mi South 3.5 mph - N/A   Clear
1:15 AM 56.8 °F 52.7 °F 86% 29.92 in 10.0 mi South 4.6 mph - N/A   Clear
1:35 AM 57.0 °F 52.9 °F 86% 29.92 in 10.0 mi South 3.5 mph - N/A   Clear
1:54 AM 57.2 °F 53.1 °F 86% 29.92 in 10.0 mi South 3.5 mph - N/A   Clear
2:15 AM 56.7 °F 53.6 °F 89% 29.93 in 10.0 mi South 5.8 mph - N/A   Clear
2:35 AM 57.7 °F 54.5 °F 89% 29.94 in 10.0 mi South 5.8 mph - N/A   Clear
2:54 AM 58.3 °F 54.5 °F 87% 29.94 in 10.0 mi South 4.6 mph - N/A   Clear
3:15 AM 58.5 °F 55.0 °F 88% 29.95 in 10.0 mi SSW 4.6 mph - N/A   Clear
3:35 AM 58.3 °F 55.4 °F 90% 29.95 in 10.0 mi SSW 3.5 mph - N/A   Clear
3:54 AM 58.3 °F 55.6 °F 91% 29.95 in 10.0 mi SSW 3.5 mph - N/A   Clear
4:15 AM 58.1 °F 55.6 °F 91% 29.95 in 10.0 mi SSW 3.5 mph - N/A   Clear
4:35 AM 57.7 °F 55.9 °F 94% 29.95 in 10.0 mi SSW 3.5 mph - N/A   Clear
4:54 AM 57.9 °F 56.3 °F 94% 29.95 in 10.0 mi SSW 3.5 mph - N/A   Clear
5:15 AM 58.1 °F 56.8 °F 96% 29.95 in 7.0 mi South 4.6 mph - N/A   Clear
5:35 AM 58.1 °F 57.2 °F 97% 29.95 in 7.0 mi South 4.6 mph - N/A   Clear
5:55 AM 58.5 °F 57.6 °F 97% 29.95 in 7.0 mi South 4.6 mph - N/A   Clear
6:15 AM 57.6 °F 56.7 °F 97% 29.95 in 5.0 mi Calm Calm - N/A   Clear
6:34 AM 57.2 °F 56.5 °F 97% 29.95 in 4.0 mi South 4.6 mph - N/A   Clear
6:55 AM 56.3 °F 55.9 °F 99% 29.96 in 4.0 mi South 3.5 mph - N/A   Clear
7:15 AM 56.5 °F 56.3 °F 99% 29.96 in 3.0 mi Calm Calm - N/A   Mostly Cloudy
7:34 AM 57.4 °F 57.0 °F 99% 29.96 in 4.0 mi South 3.5 mph - N/A   Overcast
7:55 AM 58.1 °F 57.7 °F 99% 29.96 in 2.5 mi South 5.8 mph - N/A   Overcast
8:15 AM 59.2 °F 58.8 °F 99% 29.96 in 2.0 mi South 3.5 mph - N/A   Overcast
8:35 AM 60.3 °F 59.9 °F 99% 29.97 in 2.0 mi South 4.6 mph - N/A   Overcast
8:55 AM 61.2 °F 60.8 °F 99% 29.97 in 2.0 mi SSW 4.6 mph - N/A   Overcast
9:14 AM 61.9 °F 61.2 °F 97% 29.98 in 3.0 mi SSW 6.9 mph - N/A   Overcast
9:35 AM 62.6 °F 61.3 °F 96% 29.98 in 4.0 mi SW 8.1 mph - N/A   Overcast
9:55 AM 62.8 °F 61.3 °F 95% 29.99 in 5.0 mi SSW 6.9 mph - N/A   Overcast
10:15 AM 63.3 °F 61.3 °F 93% 29.99 in 5.0 mi SSW 6.9 mph - N/A   Overcast
10:35 AM 63.5 °F 61.3 °F 93% 29.98 in 5.0 mi SSW 8.1 mph - N/A   Overcast
10:55 AM 63.5 °F 61.3 °F 93% 29.99 in 5.0 mi SSW 10.4 mph - N/A   Overcast
11:15 AM 63.9 °F 61.3 °F 91% 29.99 in 5.0 mi SSW 9.2 mph - N/A   Overcast
11:35 AM 64.4 °F 61.7 °F 91% 29.99 in 5.0 mi SSW 6.9 mph - N/A   Overcast
11:55 AM 64.8 °F 61.7 °F 90% 29.99 in 7.0 mi SSW 11.5 mph 16.1 mph N/A   Overcast
12:15 PM 64.8 °F 61.7 °F 90% 29.98 in 5.0 mi SSW 9.2 mph - N/A   Overcast
12:35 PM 65.3 °F 61.9 °F 89% 29.98 in 7.0 mi SSW 9.2 mph - N/A   Overcast
12:55 PM 65.7 °F 62.1 °F 88% 29.97 in 7.0 mi SSW 10.4 mph - N/A   Overcast
1:15 PM 66.0 °F 62.1 °F 87% 29.97 in 7.0 mi SSW 8.1 mph 16.1 mph N/A   Overcast
1:35 PM 66.2 °F 62.2 °F 87% 29.97 in 7.0 mi SSW 9.2 mph 16.1 mph N/A   Overcast
1:54 PM 67.3 °F 62.6 °F 85% 29.96 in 7.0 mi SSW 9.2 mph - N/A   Overcast
2:15 PM 68.5 °F 62.6 °F 81% 29.95 in 10.0 mi SSW 10.4 mph 18.4 mph N/A   Overcast
2:35 PM 69.6 °F 63.0 °F 79% 29.94 in 10.0 mi SSW 11.5 mph 16.1 mph N/A   Overcast
2:55 PM 70.7 °F 62.8 °F 76% 29.94 in 10.0 mi SSW 10.4 mph 18.4 mph N/A   Overcast
3:15 PM 70.7 °F 63.0 °F 76% 29.94 in 10.0 mi SSW 8.1 mph - N/A   Overcast
3:35 PM 70.9 °F 62.8 °F 75% 29.94 in 10.0 mi SW 9.2 mph - N/A   Overcast
3:55 PM 72.7 °F 63.1 °F 72% 29.93 in 10.0 mi SSW 6.9 mph - N/A   Overcast
4:15 PM 73.9 °F 63.1 °F 69% 29.93 in 10.0 mi WSW 5.8 mph - N/A   Mostly Cloudy
4:34 PM 75.4 °F 62.6 °F 64% 29.92 in 10.0 mi SW 10.4 mph - N/A   Scattered Clouds
4:55 PM 75.6 °F 63.1 °F 65% 29.92 in 10.0 mi WSW 6.9 mph - N/A   Clear
5:15 PM 75.6 °F 62.6 °F 64% 29.91 in 10.0 mi WSW 5.8 mph - N/A   Clear
5:35 PM 75.7 °F 62.6 °F 64% 29.91 in 10.0 mi WSW 8.1 mph - N/A   Clear
5:55 PM 75.2 °F 61.9 °F 63% 29.92 in 10.0 mi WSW 8.1 mph - N/A   Clear
6:14 PM 74.1 °F 62.1 °F 66% 29.92 in 10.0 mi SW 10.4 mph - N/A   Clear
6:35 PM 73.0 °F 62.2 °F 69% 29.92 in 10.0 mi WSW 8.1 mph - N/A   Clear
6:55 PM 72.5 °F 62.2 °F 70% 29.92 in 10.0 mi SW 5.8 mph - N/A   Clear
7:14 PM 71.6 °F 62.1 °F 72% 29.93 in 10.0 mi SW 8.1 mph - N/A   Clear
7:35 PM 70.7 °F 62.2 °F 75% 29.93 in 10.0 mi SW 6.9 mph - N/A   Clear
7:55 PM 69.4 °F 62.4 °F 78% 29.94 in 10.0 mi SSW 4.6 mph - N/A   Clear
8:14 PM 68.9 °F 62.2 °F 79% 29.94 in 10.0 mi SSW 5.8 mph - N/A   Clear
8:35 PM 69.1 °F 62.1 °F 78% 29.94 in 10.0 mi SSW 4.6 mph - N/A   Clear
8:55 PM 69.8 °F 61.9 °F 76% 29.94 in 10.0 mi South 6.9 mph - N/A   Clear
9:14 PM 68.9 °F 61.9 °F 78% 29.94 in 10.0 mi South 5.8 mph - N/A   Clear
9:35 PM 69.3 °F 61.9 °F 77% 29.94 in 10.0 mi SSW 6.9 mph - N/A   Clear
9:55 PM 68.2 °F 61.9 °F 80% 29.94 in 10.0 mi South 3.5 mph - N/A   Clear
10:14 PM 67.1 °F 62.2 °F 84% 29.94 in 10.0 mi South 4.6 mph - N/A   Clear
10:35 PM 65.8 °F 62.1 °F 88% 29.94 in 10.0 mi South 3.5 mph - N/A   Clear
10:55 PM 65.5 °F 62.1 °F 89% 29.94 in 10.0 mi South 3.5 mph - N/A   Clear
11:15 PM 66.0 °F 62.2 °F 88% 29.94 in 10.0 mi SSW 3.5 mph - N/A   Clear
11:35 PM 66.9 °F 62.4 °F 85% 29.95 in 10.0 mi SSW 4.6 mph - N/A   Clear
11:55 PM 68.2 °F 62.6 °F 82% 29.95 in 10.0 mi SSW 4.6 mph - N/A   Scattered Clouds